Location: ???????
(55.4362°N, 38.1183°E)
Time: 18:28:37
(UTC+00:00)

USA 267 - Pass Details

Date: 17 June 2021
Orbit: 1102 x 1106 km, 123.0° (Epoch: 24 July)

Event Time Altitude Azimuth Distance (km) Brightness Sun altitude
Exits shadow 21:27:24 12° 160° (SSE) 2,801 4.8 -11.2°
Maximum altitude 21:32:51 36° 223° (SW) 1,677 3.9 -11.2°
Drops below altitude 10° 21:38:48 10° 289° (WNW) 2,969 5.7 -11.1°
Sets 21:41:33 0° 298° (WNW) 3,930 6.5 -11.1°
